Simultaneous Nadir Overpasses (SNOs) Predictions

Prediction of SNOs between NOAA-19 and METOP-C Satellite Orbit:

Table of predicted SNOs for the next 14.0 days since TLE Epoch: 4/10/2021
Index Date (NOAA-19) Time (NOAA-19) Lat,Lon (NOAA-19) SZA (NOAA-19 ) Date (METOP-C) Time (METOP-C) Lat,Lon (METOP-C) SZA (METOP-C ) Distance(km) Time Diff (sec)
1 04/11/2021 12:29:47 -80.46,-160.07 107.02 04/11/2021 12:30:52 -80.46,-159.96 106.99 2.05 65
2 04/11/2021 13:20:43 80.46, 7.22 72.97 04/11/2021 13:21:34 80.44, 7.16 72.97 2.22 51
3 04/11/2021 14:11:47 -80.45, 174.57 107.04 04/11/2021 14:12:14 -80.45, 174.57 107.04 0.70 27
4 04/11/2021 15:02:43 80.45, -18.14 72.95 04/11/2021 15:02:55 80.46, -17.99 72.97 2.86 12
5 04/11/2021 15:53:47 -80.45, 149.20 107.06 04/11/2021 15:53:36 -80.44, 149.10 107.08 2.26 11
6 04/11/2021 16:44:43 80.44, -43.50 72.93 04/11/2021 16:44:17 80.45, -43.46 72.93 0.75 26
7 04/11/2021 17:35:47 -80.44, 123.84 107.08 04/11/2021 17:34:57 -80.45, 123.95 107.08 2.39 50
8 04/11/2021 18:26:43 80.44, -68.86 72.91 04/11/2021 18:25:39 80.44, -68.93 72.88 1.36 64
9 04/22/2021 14:33:44 80.54, -12.28 69.13 04/22/2021 14:34:55 80.49, -10.55 69.25 32.12 71
10 04/22/2021 15:24:42 -80.47, 156.42 110.84 04/22/2021 15:25:36 -80.47, 156.57 110.80 2.81 54
11 04/22/2021 16:15:40 80.47, -36.27 69.16 04/22/2021 16:16:18 80.45, -36.36 69.15 2.24 38
12 04/22/2021 17:06:42 -80.46, 131.05 110.85 04/22/2021 17:06:58 -80.46, 131.09 110.84 0.83 16
13 04/22/2021 17:57:40 80.46, -61.63 69.14 04/22/2021 17:57:39 80.47, -61.51 69.16 2.40 1
14 04/22/2021 18:48:42 -80.46, 105.68 110.87 04/22/2021 18:48:20 -80.45, 105.62 110.89 1.22 22
15 04/22/2021 19:39:40 80.45, -86.99 69.13 04/22/2021 19:39:01 80.46, -86.98 69.12 0.52 39
16 04/22/2021 20:30:42 -80.45, 80.31 110.89 04/22/2021 20:29:42 -80.44, 80.14 110.93 3.20 60



Historial Predications of SNOs between NOAA-19 and METOP-C
